Weather History for Vancouver, WA

Change the Weather History Date:

Tuesday, March 12, 2013

  Actual Average Record
Temperature  
Mean Temperature 54 °F 47 °F  
Max Temperature 61 °F 56 °F 75 °F (1934)
Min Temperature 46 °F 39 °F 22 °F (1906)
Degree Days  
Heating Degree Days 11    
Month to date heating degree days 233  
Since 1 July heating degree days 3265  
Cooling Degree Days 0    
Month to date cooling degree days 0  
Year to date cooling degree days 0  
Growing Degree Days 3 (Base 50)    
Moisture  
Dew Point 46 °F    
Average Humidity 76    
Maximum Humidity 100    
Minimum Humidity 51    
Precipitation  
Precipitation 0.00 in 0.12 in 1.20 in (1935)
Month to date precipitation 0.50 1.39  
Year to date precipitation 5.06 10.92  
Snow  
Snow 0.00 in - - ()
Month to date snowfall 0.0  
Snow Depth 0.00 in    
Sea Level Pressure  
Sea Level Pressure 30.19 in    
Wind  
Wind Speed 3 mph (SSE)    
Max Wind Speed 10 mph    
Max Gust Speed 14 mph    
Visibility 10 miles    
Events      
T = Trace of Precipitation, MM = Missing Value Source: NWS Daily Summary

Daily Weather History Graph

Daily Weather History Graph

Search for Another Location

Airport:

Trip Planner

Search our weather history database for the weather conditions in past years. The results will help you decide how hot, cold, wet, or windy it might be!

Date:

Astronomy

Mar. 12, 2013 Rise Set
Actual Time 7:28 AM PDT 7:13 PM PDT
Civil Twilight 6:58 AM PDT 7:42 PM PDT
Nautical Twilight 6:24 AM PDT 8:17 PM PDT
Astronomical Twilight 5:49 AM PDT 8:52 PM PDT
Moon 7:32 AM PDT (3/12) 8:40 PM PDT (3/12)
Length of Visible Light 12h 43m
Length of Day
11h 44m
New Moon, 1% of the Moon is Illuminated
Mar 12
New Moon
Mar 19
First Quarter
Mar 27
Full
Apr 2
Last Quarter
Apr 10
New

Hourly Weather History & Observations

Time (PDT) Temp. Dew Point Humidity Pressure Visibility Wind Dir Wind Speed Gust Speed Precip Events Conditions
12:53 AM 51.1 °F 48.0 °F 89% 30.23 in 10.0 mi East 3.5 mph - N/A   Overcast
1:53 AM 50.0 °F 48.0 °F 93% 30.22 in 10.0 mi Calm Calm - N/A   Overcast
2:53 AM 48.0 °F 46.0 °F 93% 30.22 in 10.0 mi Calm Calm - N/A   Overcast
3:53 AM 48.0 °F 45.0 °F 89% 30.20 in 8.0 mi Calm Calm - N/A   Mostly Cloudy
4:53 AM 46.9 °F 46.0 °F 97% 30.19 in 8.0 mi Calm Calm - N/A   Overcast
5:18 AM 46.4 °F 44.6 °F 93% 30.19 in 7.0 mi Calm Calm - N/A   Overcast
5:53 AM 48.9 °F 48.0 °F 97% 30.19 in 8.0 mi Calm Calm - N/A   Overcast
6:53 AM 50.0 °F 48.0 °F 93% 30.18 in 10.0 mi ESE 4.6 mph - N/A   Overcast
7:53 AM 51.1 °F 46.9 °F 86% 30.18 in 10.0 mi East 3.5 mph - N/A   Overcast
8:42 AM 51.8 °F 46.4 °F 82% 30.19 in 10.0 mi ESE 3.5 mph - N/A   Overcast
8:53 AM 52.0 °F 46.9 °F 83% 30.19 in 10.0 mi East 4.6 mph - N/A   Overcast
9:04 AM 51.8 °F 46.4 °F 82% 30.20 in 10.0 mi ESE 4.6 mph - N/A   Overcast
9:27 AM 53.6 °F 48.2 °F 82% 30.19 in 10.0 mi ESE 4.6 mph - N/A   Overcast
9:53 AM 53.1 °F 46.9 °F 80% 30.20 in 10.0 mi SW 4.6 mph - N/A   Overcast
10:53 AM 55.0 °F 46.9 °F 74% 30.20 in 10.0 mi SSW 9.2 mph - N/A   Overcast
11:53 AM 57.0 °F 46.9 °F 69% 30.21 in 10.0 mi SW 6.9 mph - N/A   Mostly Cloudy
12:12 PM 55.4 °F 46.4 °F 72% 30.21 in 10.0 mi SW 5.8 mph - N/A   Overcast
12:23 PM 57.2 °F 46.4 °F 67% 30.20 in 10.0 mi South 5.8 mph - N/A   Overcast
12:53 PM 55.9 °F 46.0 °F 69% 30.21 in 10.0 mi South 4.6 mph - N/A   Overcast
1:53 PM 57.9 °F 45.0 °F 62% 30.19 in 10.0 mi Variable 4.6 mph - N/A   Overcast
2:53 PM 60.1 °F 43.0 °F 53% 30.18 in 10.0 mi South 6.9 mph - N/A   Scattered Clouds
3:53 PM 60.1 °F 43.0 °F 53% 30.18 in 10.0 mi SSW 4.6 mph - N/A   Overcast
4:53 PM 60.1 °F 43.0 °F 53% 30.16 in 10.0 mi SSW 3.5 mph - N/A   Mostly Cloudy
5:53 PM 59.0 °F 45.0 °F 60% 30.16 in 10.0 mi SSE 4.6 mph - N/A   Overcast
6:53 PM 59.0 °F 44.1 °F 58% 30.16 in 10.0 mi Calm Calm - N/A   Overcast
7:53 PM 57.9 °F 45.0 °F 62% 30.18 in 10.0 mi Calm Calm - N/A   Overcast
9:53 PM 55.0 °F 44.1 °F 67% 30.19 in 10.0 mi Calm Calm - N/A   Mostly Cloudy
10:53 PM 51.1 °F 43.0 °F 74% 30.20 in 10.0 mi Calm Calm - N/A   Clear
11:53 PM 51.1 °F 43.0 °F 74% 30.20 in 10.0 mi Calm Calm - N/A   Partly Cloudy